QPF
0.02 0.01 0.02 0.02 0.04 0.04 0.03 0.05 0.06 0.05 0.05 0.07 0.06 0.05 0.06 0.05 0.04 0.04 0.04 0.04 0.04 0.04 0.04 0.04 0.05 0.05 0.04 0.04 0.05 0.05 0.05 0.05 0.05 0.06 0.04 0.02 0.02 0.02 0.03 0.03 0.04 0.05 0.05
0.01 0.02 0.03 0.03 0.03 0.04 0.03 0.03 0.04 0.05 0.05 0.05 0.05 0.05 0.06 0.04 0.03 0.04 0.05 0.03 0.02 0.03 0.03 0.04 0.04 0.05 0.05 0.05 0.05 0.06 0.06 0.05 0.06 0.06 0.06 0.03 0.02 0.02 0.02 0.03 0.03 0.04 0.05
0.02 0.03 0.03 0.04 0.02 0.02 0.02 0.03 0.04 0.06 0.07 0.06 0.06 0.06 0.05 0.04 0.03 0.03 0.03 0.03 0.03 0.03 0.03 0.03 0.03 0.04 0.04 0.04 0.05 0.06 0.07 0.07 0.06 0.07 0.08 0.06 0.04 0.02 0.02 0.02 0.03 0.04 0.04
0.02 0.03 0.03 0.03 0.02 0.02 0.02 0.03 0.06 0.08 0.09 0.09 0.07 0.06 0.06 0.05 0.05 0.04 0.05 0.05 0.05 0.06 0.06 0.06 0.05 0.03 0.03 0.03 0.03 0.04 0.06 0.09 0.09 0.08 0.09 0.08 0.07 0.05 0.03 0.02 0.02 0.04 0.03
0.03 0.04 0.04 0.03 0.03 0.03 0.03 0.04 0.05 0.06 0.08 0.07 0.07 0.08 0.09 0.08 0.08 0.07 0.09 0.08 0.07 0.06 0.06 0.05 0.04 0.03 0.02 0.03 0.03 0.03 0.03 0.05 0.09 0.11 0.11 0.09 0.09 0.08 0.06 0.04 0.03 0.03 0.04
0.04 0.05 0.04 0.03 0.03 0.03 0.05 0.05 0.06 0.07 0.07 0.07 0.07 0.07 0.09 0.13 0.13 0.11 0.11 0.10 0.08 0.07 0.05 0.04 0.03 0.04 0.04 0.04 0.03 0.03 0.02 0.03 0.06 0.09 0.12 0.12 0.09 0.09 0.08 0.07 0.05 0.04 0.05
0.04 0.05 0.04 0.02 0.02 0.03 0.06 0.07 0.08 0.10 0.12 0.09 0.07 0.07 0.07 0.08 0.08 0.08 0.10 0.10 0.09 0.08 0.06 0.05 0.04 0.04 0.04 0.03 0.03 0.02 0.02 0.02 0.04 0.05 0.08 0.09 0.09 0.09 0.09 0.08 0.07 0.05 0.03
0.03 0.03 0.03 0.02 0.02 0.04 0.05 0.05 0.07 0.11 0.12 0.09 0.10 0.10 0.09 0.07 0.05 0.06 0.05 0.04 0.04 0.05 0.05 0.04 0.03 0.03 0.02 0.01 0.02 0.01 0.01 0.02 0.03 0.04 0.04 0.05 0.06 0.07 0.07 0.07 0.07 0.06 0.05
0.03 0.03 0.04 0.03 0.03 0.04 0.04 0.03 0.05 0.06 0.07 0.08 0.08 0.09 0.09 0.08 0.04 0.04 0.04 0.04 0.03 0.03 0.03 0.03 0.03 0.02 0.01 0.01 0.01 0.02 0.02 0.03 0.03 0.03 0.05 0.06 0.07 0.07 0.08 0.08 0.07 0.07 0.07
0.01 0.02 0.03 0.03 0.03 0.04 0.05 0.04 0.04 0.05 0.06 0.05 0.05 0.05 0.04 0.03 0.03 0.03 0.04 0.04 0.03 0.02 0.02 0.03 0.03 0.02 0.01 0.01 0.02 0.03 0.04 0.05 0.04 0.05 0.05 0.06 0.07 0.09 0.09 0.10 0.10 0.10 0.09
0.01 0.01 0.02 0.03 0.04 0.05 0.05 0.04 0.05 0.04 0.04 0.04 0.04 0.03 0.02 0.02 0.02 0.03 0.03 0.03 0.03 0.02 0.02 0.03 0.03 0.03 0.04 0.03 0.03 0.04 0.05 0.05 0.04 0.04 0.04 0.04 0.05 0.06 0.07 0.07 0.09 0.11 0.11
0.01 0.02 0.03 0.04 0.04 0.04 0.05 0.04 0.04 0.04 0.03 0.03 0.03 0.03 0.03 0.03 0.03 0.04 0.05 0.04 0.04 0.04 0.03 0.03 0.04 0.03 0.03 0.02 0.02 0.03 0.06 0.05 0.03 0.03 0.03 0.03 0.02 0.03 0.04 0.05 0.06 0.08 0.09
0.02 0.04 0.05 0.05 0.04 0.03 0.04 0.04 0.03 0.03 0.02 0.02 0.02 0.02 0.02 0.02 0.03 0.04 0.04 0.05 0.05 0.04 0.03 0.02 0.03 0.03 0.02 0.02 0.02 0.03 0.05 0.04 0.02 0.03 0.03 0.02 0.02 0.02 0.03 0.03 0.04 0.07 0.10
0.03 0.03 0.05 0.05 0.04 0.04 0.05 0.05 0.04 0.02 0.01 0.01 0.01 0.02 0.02 0.02 0.01 0.01 0.01 0.02 0.03 0.03 0.02 0.02 0.02 0.02 0.02 0.02 0.01 0.02 0.02 0.02 0.01 0.01 0.01 0.01 0.02 0.02 0.02 0.03 0.03 0.03 0.06
0.03 0.04 0.04 0.05 0.04 0.04 0.06 0.07 0.04 0.02 0.01 0.01 0.01 0.03 0.04 0.03 0.02 0.02 0.02 0.02 0.02 0.01 0.01 0.02 0.02 0.02 0.02 0.01 0.01 0.02 0.02 0.02 0.02 0.01 0.01 0.01 0.01 0.01 0.02 0.02 0.02 0.03 0.03
0.02 0.03 0.05 0.04 0.03 0.04 0.05 0.05 0.03 0.02 0.02 0.01 0.01 0.03 0.05 0.05 0.04 0.03 0.02 0.02 0.02 0.02 0.02 0.02 0.02 0.02 0.01 0.01 0.01 0.01 0.02 0.02 0.02 0.01 0.01 0.01 0.01 0.01 0.01 0.01 0.01 0.02 0.02
0.02 0.02 0.04 0.04 0.03 0.03 0.05 0.05 0.04 0.03 0.02 0.02 0.01 0.01 0.04 0.03 0.03 0.03 0.02 0.02 0.02 0.01 0.01 0.01 0.02 0.02 0.01 0.01 0.01 0.01 0.01 0.01 0.01 0.01 0.01 0.01 0.01 0.01 0.01 0.01 0.01 0.01 0.02
0.03 0.03 0.04 0.03 0.03 0.05 0.07 0.06 0.05 0.04 0.03 0.02 0.01 0.01 0.01 0.01 0.01 0.02 0.02 0.02 0.02 0.01 0.01 0.01 0.01 0.01 0.01 0.01 0.01 0.01 0.01 0.01 0.01 0.01 0.01 0.01 0.01 0.01 0.01 0.02 0.02 0.02 0.02
0.04 0.04 0.03 0.03 0.04 0.07 0.08 0.07 0.05 0.04 0.03 0.01 0.01 0.01 0.02 0.02 0.01 0.02 0.02 0.02 0.02 0.01 0.01 0.01 0.01 0.01 0.01 0.02 0.02 0.02 0.02 0.02 0.01 0.01 0.01 0.01 0.01 0.01 0.01 0.01 0.02 0.02 0.02
0.03 0.03 0.02 0.02 0.02 0.04 0.06 0.07 0.04 0.01 0.01 0.01 0.01 0.01 0.02 0.02 0.02 0.02 0.02 0.01 0.01 0.01 0.01 0.01 0.01 0.01 0.01 0.02 0.02 0.02 0.02 0.02 0.01 0.01 0.01 0.01 0.00 0.00 0.01 0.01 0.02 0.03 0.02
0.04 0.04 0.03 0.02 0.03 0.04 0.05 0.05 0.03 0.01 0.01 0.01 0.01 0.01 0.02 0.02 0.02 0.01 0.01 0.01 0.01 0.01 0.00 0.01 0.01 0.01 0.01 0.01 0.01 0.01 0.01 0.01 0.01 0.01 0.00 0.00 0.00 0.00 0.00 0.00 0.01 0.01 0.01
0.04 0.06 0.04 0.02 0.03 0.04 0.04 0.04 0.03 0.02 0.01 0.01 0.01 0.01 0.01 0.01 0.01 0.01 0.01 0.01 0.01 0.01 0.00 0.00 0.00 0.00 0.01 0.00 0.00 0.00 0.00 0.00 0.00 0.00 0.00 0.00 0.00 0.00 0.00 0.00 0.01 0.01 0.01
0.04 0.06 0.03 0.02 0.03 0.03 0.04 0.05 0.04 0.03 0.02 0.01 0.01 0.01 0.01 0.01 0.01 0.01 0.01 0.01 0.01 0.01 0.00 0.00 0.00 0.00 0.01 0.01 0.00 0.00 0.00 0.00 0.00 0.00 0.00 0.00 0.00 0.00 0.00 0.00 0.01 0.01 0.02
0.03 0.04 0.02 0.02 0.02 0.03 0.04 0.04 0.05 0.04 0.03 0.02 0.01 0.01 0.01 0.02 0.02 0.01 0.01 0.01 0.01 0.01 0.01 0.01 0.01 0.00 0.00 0.00 0.01 0.01 0.01 0.00 0.00 0.00 0.00 0.00 0.00 0.00 0.00 0.00 0.00 0.01 0.02
0.02 0.03 0.02 0.02 0.03 0.04 0.06 0.07 0.05 0.03 0.03 0.02 0.01 0.01 0.01 0.02 0.03 0.02 0.01 0.00 0.00 0.01 0.01 0.01 0.00 0.00 0.00 0.00 0.01 0.01 0.01 0.01 0.01 0.00 0.00 0.01 0.01 0.01 0.01 0.01 0.00 0.01 0.02
0.01 0.02 0.03 0.03 0.03 0.05 0.08 0.09 0.07 0.04 0.02 0.02 0.02 0.02 0.02 0.01 0.02 0.02 0.01 0.01 0.00 0.00 0.00 0.00 0.00 0.00 0.00 0.00 0.00 0.01 0.01 0.00 0.00 0.00 0.00 0.01 0.01 0.01 0.01 0.01 0.00 0.00 0.01
MSLP
1011.74 1011.81 1011.82 1011.81 1011.78 1011.78 1011.83 1011.95 1012.12 1012.35 1012.61 1012.87 1013.11 1013.33 1013.53 1013.71 1013.90 1014.09 1014.29 1014.51 1014.72 1014.91 1015.06 1015.16 1015.23 1015.26 1015.29 1015.34 1015.44 1015.60 1015.82 1016.09 1016.38 1016.65 1016.89 1017.06 1017.16 1017.21 1017.21 1017.20 1017.20 1017.23 1017.31
1012.42 1012.44 1012.38 1012.26 1012.12 1012.00 1011.93 1011.93 1012.01 1012.17 1012.37 1012.58 1012.80 1012.99 1013.16 1013.31 1013.47 1013.63 1013.82 1014.02 1014.23 1014.43 1014.60 1014.73 1014.82 1014.88 1014.93 1015.00 1015.10 1015.27 1015.50 1015.77 1016.08 1016.39 1016.67 1016.90 1017.06 1017.18 1017.25 1017.31 1017.37 1017.46 1017.58
1013.11 1013.13 1013.03 1012.84 1012.60 1012.36 1012.17 1012.05 1012.03 1012.09 1012.21 1012.37 1012.53 1012.68 1012.81 1012.92 1013.03 1013.16 1013.30 1013.48 1013.67 1013.86 1014.05 1014.20 1014.33 1014.42 1014.51 1014.60 1014.73 1014.91 1015.15 1015.44 1015.76 1016.09 1016.39 1016.66 1016.89 1017.06 1017.20 1017.32 1017.45 1017.59 1017.75
1013.74 1013.81 1013.72 1013.50 1013.19 1012.85 1012.55 1012.32 1012.19 1012.15 1012.19 1012.27 1012.38 1012.47 1012.55 1012.61 1012.66 1012.73 1012.82 1012.95 1013.11 1013.28 1013.46 1013.63 1013.79 1013.92 1014.05 1014.19 1014.35 1014.56 1014.81 1015.11 1015.44 1015.77 1016.09 1016.39 1016.64 1016.86 1017.04 1017.21 1017.38 1017.56 1017.76
1014.28 1014.43 1014.38 1014.17 1013.83 1013.43 1013.05 1012.72 1012.49 1012.36 1012.32 1012.33 1012.36 1012.40 1012.42 1012.42 1012.41 1012.42 1012.44 1012.51 1012.61 1012.75 1012.91 1013.08 1013.25 1013.42 1013.59 1013.78 1013.98 1014.22 1014.50 1014.80 1015.13 1015.46 1015.78 1016.08 1016.34 1016.57 1016.77 1016.97 1017.16 1017.36 1017.57
1014.71 1014.96 1014.98 1014.80 1014.47 1014.05 1013.61 1013.22 1012.91 1012.71 1012.59 1012.53 1012.51 1012.49 1012.46 1012.40 1012.33 1012.27 1012.22 1012.22 1012.25 1012.34 1012.46 1012.61 1012.78 1012.97 1013.17 1013.39 1013.63 1013.90 1014.19 1014.51 1014.84 1015.16 1015.47 1015.74 1015.99 1016.21 1016.41 1016.60 1016.80 1017.00 1017.21
1015.05 1015.39 1015.50 1015.38 1015.07 1014.66 1014.20 1013.77 1013.42 1013.15 1012.98 1012.87 1012.80 1012.74 1012.66 1012.56 1012.44 1012.31 1012.20 1012.12 1012.09 1012.10 1012.17 1012.28 1012.43 1012.61 1012.81 1013.05 1013.32 1013.60 1013.92 1014.24 1014.56 1014.87 1015.16 1015.41 1015.63 1015.83 1016.00 1016.17 1016.34 1016.53 1016.73
1015.33 1015.75 1015.92 1015.86 1015.60 1015.21 1014.76 1014.32 1013.94 1013.65 1013.44 1013.30 1013.20 1013.11 1013.00 1012.87 1012.72 1012.55 1012.38 1012.24 1012.14 1012.08 1012.08 1012.13 1012.23 1012.38 1012.56 1012.79 1013.06 1013.35 1013.67 1013.99 1014.31 1014.61 1014.88 1015.11 1015.30 1015.47 1015.61 1015.75 1015.89 1016.05 1016.23
1015.60 1016.06 1016.27 1016.25 1016.03 1015.67 1015.25 1014.83 1014.45 1014.15 1013.93 1013.77 1013.66 1013.55 1013.44 1013.30 1013.13 1012.95 1012.75 1012.57 1012.41 1012.29 1012.22 1012.20 1012.23 1012.32 1012.46 1012.65 1012.89 1013.17 1013.48 1013.80 1014.12 1014.41 1014.67 1014.89 1015.06 1015.20 1015.31 1015.42 1015.53 1015.65 1015.80
1015.90 1016.35 1016.56 1016.56 1016.36 1016.05 1015.66 1015.26 1014.91 1014.62 1014.41 1014.25 1014.13 1014.03 1013.93 1013.80 1013.64 1013.46 1013.27 1013.07 1012.88 1012.72 1012.59 1012.49 1012.45 1012.47 1012.54 1012.68 1012.87 1013.12 1013.41 1013.72 1014.03 1014.33 1014.59 1014.81 1014.98 1015.10 1015.19 1015.26 1015.34 1015.42 1015.54
1016.25 1016.64 1016.82 1016.80 1016.62 1016.33 1015.98 1015.63 1015.31 1015.05 1014.85 1014.70 1014.60 1014.51 1014.42 1014.32 1014.20 1014.05 1013.89 1013.71 1013.52 1013.34 1013.16 1013.02 1012.91 1012.84 1012.84 1012.91 1013.04 1013.25 1013.51 1013.81 1014.12 1014.43 1014.70 1014.93 1015.10 1015.22 1015.30 1015.35 1015.38 1015.43 1015.50
1016.66 1016.95 1017.06 1017.01 1016.83 1016.56 1016.25 1015.94 1015.66 1015.43 1015.26 1015.13 1015.04 1014.97 1014.91 1014.84 1014.76 1014.66 1014.55 1014.41 1014.25 1014.08 1013.90 1013.72 1013.56 1013.43 1013.36 1013.35 1013.43 1013.58 1013.81 1014.10 1014.41 1014.72 1015.01 1015.26 1015.44 1015.57 1015.63 1015.66 1015.66 1015.67 1015.69
1017.11 1017.28 1017.31 1017.21 1017.02 1016.77 1016.49 1016.23 1016.00 1015.81 1015.66 1015.55 1015.47 1015.41 1015.37 1015.33 1015.30 1015.25 1015.20 1015.12 1015.02 1014.89 1014.72 1014.54 1014.35 1014.19 1014.06 1014.00 1014.02 1014.13 1014.32 1014.59 1014.90 1015.22 1015.53 1015.78 1015.98 1016.10 1016.16 1016.15 1016.12 1016.07 1016.04
1017.57 1017.64 1017.58 1017.43 1017.22 1016.99 1016.76 1016.54 1016.36 1016.20 1016.08 1015.98 1015.90 1015.84 1015.80 1015.79 1015.78 1015.79 1015.80 1015.79 1015.75 1015.67 1015.56 1015.40 1015.22 1015.03 1014.88 1014.78 1014.76 1014.84 1015.00 1015.25 1015.55 1015.87 1016.18 1016.44 1016.64 1016.75 1016.78 1016.75 1016.67 1016.57 1016.46
1018.03 1018.00 1017.86 1017.68 1017.46 1017.25 1017.06 1016.89 1016.76 1016.63 1016.53 1016.43 1016.34 1016.27 1016.22 1016.20 1016.22 1016.26 1016.31 1016.36 1016.39 1016.38 1016.32 1016.21 1016.06 1015.89 1015.73 1015.62 1015.58 1015.62 1015.76 1015.99 1016.27 1016.58 1016.88 1017.13 1017.31 1017.40 1017.41 1017.33 1017.20 1017.04 1016.88
1018.45 1018.35 1018.17 1017.96 1017.75 1017.57 1017.42 1017.30 1017.20 1017.11 1017.01 1016.91 1016.81 1016.71 1016.64 1016.60 1016.60 1016.65 1016.73 1016.82 1016.90 1016.95 1016.95 1016.89 1016.79 1016.65 1016.51 1016.41 1016.36 1016.39 1016.51 1016.71 1016.97 1017.26 1017.53 1017.75 1017.90 1017.96 1017.93 1017.81 1017.63 1017.42 1017.20
1018.82 1018.67 1018.47 1018.26 1018.07 1017.92 1017.81 1017.74 1017.68 1017.62 1017.53 1017.42 1017.29 1017.16 1017.05 1016.97 1016.95 1016.98 1017.06 1017.17 1017.28 1017.37 1017.42 1017.42 1017.36 1017.26 1017.16 1017.07 1017.02 1017.05 1017.15 1017.33 1017.55 1017.80 1018.04 1018.22 1018.33 1018.35 1018.27 1018.11 1017.89 1017.64 1017.39
1019.11 1018.95 1018.75 1018.56 1018.39 1018.28 1018.22 1018.18 1018.16 1018.12 1018.05 1017.93 1017.78 1017.62 1017.46 1017.34 1017.27 1017.27 1017.32 1017.42 1017.54 1017.65 1017.74 1017.77 1017.76 1017.70 1017.63 1017.56 1017.53 1017.55 1017.63 1017.77 1017.96 1018.16 1018.35 1018.49 1018.55 1018.53 1018.42 1018.23 1017.99 1017.72 1017.45
1019.31 1019.17 1018.99 1018.82 1018.69 1018.61 1018.58 1018.59 1018.60 1018.58 1018.53 1018.41 1018.25 1018.06 1017.87 1017.71 1017.59 1017.55 1017.56 1017.64 1017.74 1017.85 1017.95 1018.00 1018.02 1017.99 1017.94 1017.89 1017.87 1017.88 1017.94 1018.04 1018.18 1018.33 1018.47 1018.56 1018.58 1018.52 1018.39 1018.19 1017.95 1017.68 1017.42
1019.43 1019.32 1019.17 1019.02 1018.92 1018.87 1018.88 1018.92 1018.96 1018.97 1018.93 1018.83 1018.68 1018.48 1018.28 1018.08 1017.94 1017.85 1017.83 1017.86 1017.94 1018.03 1018.12 1018.18 1018.21 1018.20 1018.17 1018.13 1018.10 1018.09 1018.12 1018.18 1018.27 1018.37 1018.44 1018.48 1018.47 1018.39 1018.25 1018.06 1017.83 1017.59 1017.36
1019.46 1019.38 1019.26 1019.15 1019.07 1019.05 1019.08 1019.14 1019.21 1019.25 1019.24 1019.17 1019.04 1018.87 1018.67 1018.47 1018.31 1018.20 1018.14 1018.15 1018.19 1018.26 1018.33 1018.39 1018.41 1018.40 1018.37 1018.33 1018.28 1018.25 1018.24 1018.26 1018.29 1018.32 1018.35 1018.34 1018.30 1018.20 1018.06 1017.88 1017.69 1017.49 1017.30
1019.41 1019.37 1019.28 1019.19 1019.13 1019.13 1019.18 1019.26 1019.35 1019.42 1019.45 1019.42 1019.33 1019.20 1019.03 1018.85 1018.70 1018.58 1018.51 1018.49 1018.51 1018.56 1018.61 1018.65 1018.67 1018.66 1018.62 1018.56 1018.49 1018.42 1018.37 1018.33 1018.30 1018.27 1018.24 1018.19 1018.12 1018.01 1017.88 1017.72 1017.56 1017.40 1017.26
1019.30 1019.29 1019.23 1019.16 1019.12 1019.13 1019.18 1019.28 1019.39 1019.49 1019.56 1019.57 1019.54 1019.45 1019.33 1019.20 1019.07 1018.97 1018.91 1018.89 1018.90 1018.93 1018.97 1018.99 1019.00 1018.98 1018.92 1018.84 1018.75 1018.64 1018.53 1018.43 1018.34 1018.25 1018.16 1018.07 1017.96 1017.84 1017.72 1017.58 1017.44 1017.32 1017.21
1019.16 1019.17 1019.14 1019.09 1019.06 1019.08 1019.14 1019.24 1019.36 1019.48 1019.58 1019.64 1019.65 1019.62 1019.56 1019.47 1019.39 1019.32 1019.28 1019.26 1019.28 1019.31 1019.34 1019.37 1019.36 1019.33 1019.26 1019.16 1019.04 1018.89 1018.73 1018.57 1018.41 1018.26 1018.11 1017.97 1017.84 1017.70 1017.57 1017.44 1017.32 1017.21 1017.12
1019.01 1019.05 1019.04 1019.01 1019.00 1019.01 1019.07 1019.17 1019.29 1019.41 1019.53 1019.62 1019.67 1019.69 1019.67 1019.63 1019.59 1019.56 1019.54 1019.55 1019.57 1019.61 1019.66 1019.68 1019.69 1019.65 1019.58 1019.46 1019.31 1019.12 1018.92 1018.70 1018.48 1018.27 1018.07 1017.89 1017.71 1017.55 1017.41 1017.27 1017.16 1017.05 1016.96
1018.87 1018.95 1018.96 1018.96 1018.95 1018.97 1019.02 1019.10 1019.21 1019.33 1019.44 1019.54 1019.60 1019.64 1019.65 1019.64 1019.63 1019.62 1019.63 1019.66 1019.70 1019.76 1019.81 1019.86 1019.87 1019.84 1019.77 1019.65 1019.48 1019.27 1019.03 1018.77 1018.51 1018.24 1017.99 1017.76 1017.56 1017.37 1017.20 1017.06 1016.93 1016.81 1016.70
Thickness
5735 5733 5730 5727 5723 5719 5715 5712 5708 5704 5701 5697 5694 5690 5687 5684 5681 5678 5674 5672 5670 5668 5667 5667 5665 5664 5664 5662 5662 5662 5663 5662 5661 5661 5661 5662 5663 5662 5661 5662 5662 5662 5661
5729 5725 5723 5722 5718 5715 5711 5708 5704 5701 5698 5694 5690 5687 5683 5680 5676 5672 5668 5665 5663 5661 5662 5659 5659 5658 5656 5655 5655 5655 5655 5656 5655 5653 5653 5654 5654 5654 5655 5654 5654 5654 5653
5725 5722 5719 5716 5714 5710 5708 5706 5701 5697 5694 5690 5686 5681 5676 5673 5670 5665 5662 5659 5657 5655 5653 5652 5651 5650 5651 5650 5647 5647 5647 5647 5648 5647 5645 5644 5644 5646 5646 5645 5645 5644 5644
5723 5719 5716 5713 5710 5708 5706 5702 5697 5693 5689 5685 5682 5677 5672 5669 5665 5661 5657 5653 5651 5649 5647 5645 5643 5643 5644 5642 5642 5641 5640 5638 5639 5640 5638 5637 5637 5635 5636 5637 5637 5636 5636
5721 5717 5714 5710 5708 5705 5701 5697 5692 5688 5683 5680 5676 5671 5668 5664 5660 5655 5650 5648 5645 5643 5641 5639 5637 5636 5636 5635 5634 5633 5632 5632 5632 5632 5632 5631 5630 5630 5628 5628 5628 5628 5628
5719 5715 5711 5707 5703 5701 5697 5692 5687 5681 5678 5674 5670 5666 5661 5656 5652 5648 5645 5643 5641 5638 5636 5633 5631 5630 5629 5628 5627 5626 5625 5625 5623 5623 5624 5623 5623 5622 5621 5620 5619 5620 5621
5714 5709 5705 5702 5698 5694 5690 5686 5681 5675 5671 5667 5664 5659 5654 5649 5646 5643 5640 5637 5635 5633 5628 5626 5624 5623 5622 5621 5620 5619 5618 5617 5616 5615 5616 5616 5616 5615 5614 5613 5613 5612 5613
5709 5705 5701 5697 5693 5688 5684 5680 5676 5670 5666 5661 5657 5653 5648 5645 5642 5637 5635 5631 5629 5626 5621 5619 5618 5617 5616 5615 5613 5613 5612 5610 5609 5609 5608 5608 5609 5608 5607 5606 5605 5604 5606
5703 5700 5696 5692 5687 5683 5678 5675 5670 5665 5661 5656 5651 5647 5642 5638 5635 5631 5628 5625 5621 5619 5616 5614 5612 5611 5609 5608 5607 5606 5604 5603 5602 5603 5602 5602 5602 5602 5601 5599 5599 5598 5598
5697 5694 5690 5686 5682 5677 5672 5668 5665 5660 5656 5651 5647 5642 5637 5634 5631 5627 5622 5619 5615 5613 5610 5609 5607 5605 5603 5602 5600 5600 5597 5596 5596 5595 5594 5594 5595 5595 5594 5594 5594 5593 5593
5690 5686 5683 5680 5675 5670 5666 5662 5658 5654 5650 5647 5642 5637 5634 5630 5627 5623 5619 5615 5612 5608 5606 5604 5602 5600 5598 5596 5594 5594 5592 5591 5590 5589 5589 5588 5588 5588 5589 5589 5588 5589 5589
5685 5681 5677 5673 5668 5664 5661 5657 5653 5649 5646 5642 5638 5634 5630 5626 5623 5619 5615 5611 5608 5605 5602 5600 5597 5595 5593 5591 5590 5588 5587 5586 5585 5584 5583 5583 5583 5582 5583 5583 5583 5583 5582
5678 5674 5669 5665 5662 5658 5655 5651 5648 5644 5641 5638 5634 5630 5626 5622 5619 5615 5611 5607 5604 5602 5599 5597 5594 5592 5589 5587 5585 5584 5583 5582 5580 5579 5578 5578 5578 5578 5579 5578 5579 5579 5579
5671 5667 5662 5659 5655 5652 5649 5646 5643 5640 5636 5634 5630 5626 5623 5619 5615 5611 5607 5604 5601 5599 5596 5594 5591 5589 5587 5585 5582 5580 5578 5577 5576 5576 5575 5575 5575 5574 5574 5575 5574 5574 5574
5664 5661 5657 5654 5650 5647 5644 5641 5638 5635 5632 5629 5627 5623 5619 5616 5611 5607 5604 5601 5598 5597 5594 5591 5589 5587 5585 5582 5579 5577 5576 5574 5574 5573 5573 5573 5571 5569 5569 5572 5571 5571 5571
5660 5657 5653 5649 5645 5642 5639 5636 5634 5631 5629 5626 5623 5620 5616 5612 5608 5604 5601 5599 5596 5594 5592 5590 5588 5585 5583 5577 5573 5572 5573 5573 5573 5572 5572 5572 5571 5568 5566 5565 5565 5564 5566
5658 5653 5649 5645 5641 5638 5635 5632 5629 5627 5624 5622 5619 5616 5613 5609 5606 5604 5601 5597 5595 5593 5590 5588 5586 5583 5578 5574 5571 5570 5570 5572 5571 5571 5570 5572 5572 5569 5569 5567 5565 5564 5562
5655 5650 5646 5642 5638 5635 5631 5628 5626 5623 5621 5619 5616 5614 5611 5608 5605 5602 5599 5596 5593 5591 5589 5587 5584 5581 5577 5572 5570 5569 5570 5572 5571 5570 5570 5569 5569 5569 5567 5568 5569 5569 5567
5652 5648 5644 5639 5635 5631 5628 5625 5622 5620 5618 5617 5614 5612 5609 5606 5603 5600 5598 5595 5593 5591 5589 5587 5584 5581 5577 5572 5570 5568 5572 5572 5572 5571 5570 5569 5568 5564 5563 5566 5568 5569 5568
5648 5645 5641 5637 5632 5628 5626 5622 5619 5617 5616 5615 5612 5610 5607 5604 5602 5599 5596 5595 5593 5591 5589 5586 5584 5581 5578 5573 5571 5568 5574 5574 5574 5573 5572 5568 5566 5563 5562 5565 5568 5568 5568
5644 5641 5638 5634 5630 5626 5623 5620 5618 5616 5615 5613 5611 5608 5605 5603 5601 5598 5596 5594 5592 5590 5588 5586 5585 5582 5579 5575 5572 5570 5573 5574 5575 5575 5575 5572 5566 5564 5563 5563 5566 5566 5565
5640 5638 5635 5632 5629 5625 5622 5619 5617 5615 5614 5611 5608 5606 5604 5603 5601 5597 5595 5594 5592 5590 5588 5587 5586 5585 5582 5578 5575 5571 5570 5569 5573 5574 5575 5573 5567 5565 5564 5565 5565 5565 5563
5637 5635 5632 5629 5626 5624 5621 5618 5615 5614 5612 5609 5606 5604 5602 5601 5599 5597 5596 5595 5593 5592 5591 5590 5589 5588 5586 5582 5577 5574 5572 5571 5572 5574 5571 5569 5567 5567 5568 5567 5567 5566 5569
5635 5632 5630 5627 5624 5622 5620 5617 5615 5612 5610 5607 5605 5603 5602 5601 5599 5598 5598 5597 5595 5594 5592 5591 5590 5589 5587 5585 5583 5580 5578 5574 5574 5575 5574 5571 5571 5571 5571 5572 5573 5574 5574
5633 5630 5628 5626 5623 5621 5618 5616 5614 5612 5609 5607 5605 5604 5604 5602 5600 5599 5597 5597 5594 5592 5589 5590 5589 5587 5586 5582 5576 5575 5578 5577 5576 5573 5576 5579 5580 5580 5581 5581 5581 5579 5578
5630 5628 5626 5624 5622 5620 5618 5615 5613 5611 5609 5607 5605 5606 5605 5604 5603 5601 5599 5594 5592 5589 5586 5584 5582 5585 5581 5578 5576 5574 5572 5571 5569 5571 5578 5581 5582 5582 5583 5583 5583 5582 5581